CKS261 VHHH-RKSI

Flight info

Callsign CKS261
Flight time 2h 43m
Altitude 37000
Route DALOL V631 ENVAR M750 ANLOT B1 APU DCT DRAKE Q11 WP900 L4 LIPLO Y741 ATOTI Y722 OLMEN OLMEN1Y
Aircraft B77L/H-SDE1E2E3FGHIJ2J3J4J5M1RWXY/LB1D1

Departure

Time 2026-05-04 03:11
Airport Hong Kong International Airport (VHHH)

Arrival

Time 2026-05-04 05:54
Airport Incheon International Airport (RKSI)
Time Latitude Longitude Altitude Speed Heading
2026-05-04 02:53 22.29896 113.92210 42 ft 0 kts 162°
2026-05-04 02:59 22.29900 113.92209 42 ft 2 kts 162°
2026-05-04 02:59 22.29914 113.92203 42 ft 2 kts 162°
2026-05-04 03:00 22.29929 113.92199 42 ft 2 kts 162°
2026-05-04 03:00 22.29943 113.92194 42 ft 2 kts 162°
2026-05-04 03:00 22.29957 113.92189 42 ft 2 kts 162°
2026-05-04 03:00 22.29972 113.92186 42 ft 2 kts 192°
2026-05-04 03:01 22.29985 113.92192 42 ft 2 kts 220°
2026-05-04 03:01 22.29994 113.92204 42 ft 1 kts 248°
2026-05-04 03:01 22.29996 113.92210 42 ft 0 kts 251°
2026-05-04 03:03 22.29993 113.92201 42 ft 3 kts 251°
2026-05-04 03:03 22.29979 113.92157 42 ft 8 kts 250°
2026-05-04 03:03 22.29960 113.92097 42 ft 8 kts 250°
2026-05-04 03:04 22.29940 113.92037 42 ft 8 kts 251°
2026-05-04 03:04 22.29919 113.91971 42 ft 9 kts 251°
2026-05-04 03:04 22.29899 113.91906 42 ft 8 kts 251°
2026-05-04 03:04 22.29879 113.91843 42 ft 9 kts 251°
2026-05-04 03:05 22.29877 113.91769 42 ft 10 kts 310°
2026-05-04 03:05 22.29944 113.91730 42 ft 10 kts 343°
2026-05-04 03:05 22.30015 113.91705 42 ft 10 kts 333°
2026-05-04 03:05 22.30033 113.91643 42 ft 9 kts 253°
2026-05-04 03:06 22.30007 113.91560 42 ft 14 kts 251°
2026-05-04 03:06 22.29970 113.91447 42 ft 16 kts 251°
2026-05-04 03:06 22.29934 113.91335 42 ft 15 kts 251°
2026-05-04 03:06 22.29900 113.91227 42 ft 15 kts 250°
2026-05-04 03:07 22.29864 113.91116 42 ft 16 kts 251°
2026-05-04 03:07 22.29825 113.90996 42 ft 17 kts 251°
2026-05-04 03:07 22.29785 113.90870 42 ft 18 kts 251°
2026-05-04 03:07 22.29742 113.90738 42 ft 19 kts 251°
2026-05-04 03:08 22.29698 113.90602 42 ft 19 kts 251°
2026-05-04 03:08 22.29651 113.90459 42 ft 20 kts 251°
2026-05-04 03:08 22.29604 113.90314 42 ft 20 kts 251°
2026-05-04 03:08 22.29559 113.90174 42 ft 19 kts 251°
2026-05-04 03:09 22.29516 113.90037 42 ft 18 kts 251°
2026-05-04 03:09 22.29489 113.89947 42 ft 10 kts 259°
2026-05-04 03:09 22.29503 113.89874 42 ft 9 kts 304°
2026-05-04 03:09 22.29557 113.89835 42 ft 9 kts 338°
2026-05-04 03:10 22.29616 113.89816 42 ft 7 kts
2026-05-04 03:10 22.29632 113.89837 42 ft 0 kts 71°
2026-05-04 03:10 22.29677 113.89978 42 ft 54 kts 71°
2026-05-04 03:10 22.29884 113.90619 42 ft 125 kts 71°
2026-05-04 03:11 22.30249 113.91760 101 ft 180 kts 70°
2026-05-04 03:11 22.30638 113.93039 868 ft 182 kts 69°
2026-05-04 03:11 22.31067 113.94353 1597 ft 191 kts 68°
2026-05-04 03:11 22.31539 113.95762 2067 ft 209 kts 69°
2026-05-04 03:12 22.32040 113.97304 2574 ft 227 kts 69°
2026-05-04 03:12 22.32573 113.98962 3129 ft 244 kts 70°
2026-05-04 03:12 22.33144 114.00738 3739 ft 259 kts 70°
2026-05-04 03:12 22.33713 114.02609 4485 ft 267 kts 75°
2026-05-04 03:13 22.33866 114.04623 5226 ft 275 kts 99°
2026-05-04 03:13 22.33186 114.06542 5933 ft 279 kts 127°
2026-05-04 03:13 22.31809 114.07998 6722 ft 278 kts 150°
2026-05-04 03:13 22.30027 114.08773 7397 ft 280 kts 171°
2026-05-04 03:14 22.28094 114.08891 8094 ft 281 kts 186°
2026-05-04 03:14 22.26118 114.08771 8871 ft 284 kts 186°
2026-05-04 03:14 22.24153 114.08698 9576 ft 288 kts 185°
2026-05-04 03:14 22.22135 114.08666 10313 ft 291 kts 184°
2026-05-04 03:15 22.20066 114.08835 10808 ft 307 kts 174°
2026-05-04 03:15 22.17914 114.09386 11238 ft 327 kts 165°
2026-05-04 03:15 22.15757 114.10384 11723 ft 346 kts 155°
2026-05-04 03:15 22.13681 114.11877 12237 ft 365 kts 144°
2026-05-04 03:16 22.11839 114.13846 12788 ft 383 kts 133°
2026-05-04 03:16 22.10334 114.16264 13290 ft 403 kts 121°
2026-05-04 03:16 22.09218 114.19123 13862 ft 420 kts 110°
2026-05-04 03:16 22.08317 114.22112 14632 ft 427 kts 112°
2026-05-04 03:17 22.07088 114.25015 15525 ft 428 kts 123°
2026-05-04 03:17 22.05415 114.27638 16374 ft 428 kts 133°
2026-05-04 03:17 22.03323 114.29930 17208 ft 429 kts 143°
2026-05-04 03:17 22.00961 114.31836 18022 ft 431 kts 149°
2026-05-04 03:18 21.98505 114.33690 18869 ft 434 kts 149°
2026-05-04 03:18 21.96022 114.35580 19592 ft 441 kts 148°
2026-05-04 03:18 21.93499 114.37521 20233 ft 450 kts 148°
2026-05-04 03:18 21.90961 114.39487 20947 ft 455 kts 148°
2026-05-04 03:19 21.88458 114.41625 21736 ft 461 kts 141°
2026-05-04 03:19 21.86256 114.44179 22347 ft 473 kts 131°
2026-05-04 03:19 21.84413 114.47145 22890 ft 486 kts 122°
2026-05-04 03:19 21.83002 114.50516 23525 ft 496 kts 111°
2026-05-04 03:20 21.82041 114.54063 24177 ft 503 kts 107°
2026-05-04 03:20 21.81152 114.57713 24835 ft 508 kts 107°
2026-05-04 03:20 21.80242 114.61409 25460 ft 514 kts 107°
2026-05-04 03:20 21.79310 114.65143 26152 ft 519 kts 107°
2026-05-04 03:21 21.78368 114.68874 26870 ft 523 kts 107°
2026-05-04 03:21 21.77405 114.72659 27568 ft 527 kts 107°
2026-05-04 03:21 21.76433 114.76453 28197 ft 533 kts 108°
2026-05-04 03:21 21.75443 114.80299 28716 ft 541 kts 108°
2026-05-04 03:22 21.74639 114.84270 29260 ft 550 kts 99°
2026-05-04 03:22 21.74350 114.88372 30050 ft 552 kts 92°
2026-05-04 03:22 21.74331 114.92461 31082 ft 548 kts 90°
2026-05-04 03:22 21.74337 114.96523 32050 ft 543 kts 91°
2026-05-04 03:23 21.74342 115.00533 32879 ft 542 kts 90°
2026-05-04 03:23 21.74345 115.04575 33739 ft 541 kts 91°
2026-05-04 03:23 21.74346 115.08616 34679 ft 538 kts 91°
2026-05-04 03:23 21.74345 115.12585 35624 ft 534 kts 91°
2026-05-04 03:24 21.74343 115.16583 36499 ft 532 kts 90°
2026-05-04 03:24 21.74339 115.20534 37026 ft 534 kts 91°
2026-05-04 03:24 21.74333 115.24515 37048 ft 534 kts 91°
2026-05-04 03:25 21.74319 115.32519 37047 ft 530 kts 91°
2026-05-04 03:25 21.74300 115.40403 37051 ft 533 kts 91°
2026-05-04 03:26 21.74277 115.48360 37048 ft 531 kts 91°
2026-05-04 03:26 21.74250 115.56258 37048 ft 530 kts 91°
2026-05-04 03:27 21.74221 115.64175 37047 ft 530 kts 91°
2026-05-04 03:27 21.74190 115.72128 37037 ft 529 kts 91°
2026-05-04 03:28 21.74155 115.80023 37036 ft 530 kts 91°
2026-05-04 03:28 21.74116 115.87914 37033 ft 530 kts 91°
2026-05-04 03:29 21.74073 115.95845 37038 ft 530 kts 91°
2026-05-04 03:29 21.74027 116.03773 37034 ft 529 kts 91°
2026-05-04 03:30 21.73977 116.11624 37034 ft 530 kts 91°
2026-05-04 03:30 21.73923 116.19569 37035 ft 529 kts 91°
2026-05-04 03:31 21.73865 116.27461 37035 ft 530 kts 91°
2026-05-04 03:31 21.73804 116.35338 37036 ft 530 kts 91°
2026-05-04 03:32 21.73739 116.43255 37036 ft 529 kts 91°
2026-05-04 03:32 21.73670 116.51120 37038 ft 530 kts 91°
2026-05-04 03:33 21.73598 116.59027 37035 ft 528 kts 91°
2026-05-04 03:33 21.73521 116.66918 37028 ft 528 kts 91°
2026-05-04 03:34 21.73489 116.74788 37020 ft 530 kts 87°
2026-05-04 03:34 21.74884 116.82525 37026 ft 529 kts 70°
2026-05-04 03:35 21.77513 116.89907 37028 ft 529 kts 68°
2026-05-04 03:35 21.80173 116.97223 37030 ft 528 kts 67°
2026-05-04 03:36 21.82850 117.04611 37031 ft 528 kts 67°
2026-05-04 03:36 21.85507 117.11964 37032 ft 529 kts 68°
2026-05-04 03:37 21.88142 117.19276 37034 ft 529 kts 67°
2026-05-04 03:37 21.90808 117.26682 37036 ft 531 kts 68°
2026-05-04 03:38 21.93453 117.34049 37036 ft 528 kts 68°
2026-05-04 03:38 21.96099 117.41428 37036 ft 529 kts 68°
2026-05-04 03:39 21.98759 117.48774 37034 ft 528 kts 64°
2026-05-04 03:39 22.02357 117.55653 37042 ft 527 kts 56°
2026-05-04 03:40 22.06174 117.62357 37043 ft 526 kts 56°
2026-05-04 03:40 22.09987 117.69067 37031 ft 527 kts 56°
2026-05-04 03:41 22.13806 117.75800 37032 ft 528 kts 57°
2026-05-04 03:41 22.17635 117.82562 37034 ft 528 kts 57°
2026-05-04 03:42 22.21451 117.89312 37035 ft 529 kts 57°
2026-05-04 03:42 22.25268 117.96075 37036 ft 529 kts 56°
2026-05-04 03:43 22.29109 118.02844 37037 ft 527 kts 56°
2026-05-04 03:43 22.33029 118.09546 37039 ft 527 kts 55°
2026-05-04 03:44 22.36940 118.16242 37036 ft 527 kts 56°
2026-05-04 03:44 22.40835 118.22932 37038 ft 528 kts 56°
2026-05-04 03:45 22.44681 118.29712 37038 ft 529 kts 56°
2026-05-04 03:45 22.48515 118.36491 37038 ft 530 kts 56°
2026-05-04 03:46 22.52344 118.43267 37038 ft 530 kts 56°
2026-05-04 03:46 22.56212 118.50118 37040 ft 531 kts 56°
2026-05-04 03:47 22.60056 118.56885 37040 ft 530 kts 56°
2026-05-04 03:47 22.63927 118.63678 37042 ft 530 kts 56°
2026-05-04 03:48 22.67802 118.70488 37030 ft 530 kts 56°
2026-05-04 03:48 22.71679 118.77310 37031 ft 531 kts 56°
2026-05-04 03:49 22.75523 118.84087 37028 ft 531 kts 56°
2026-05-04 03:49 22.79374 118.90881 37030 ft 531 kts 56°
2026-05-04 03:50 22.83260 118.97750 37033 ft 533 kts 56°
2026-05-04 03:50 22.87124 119.04588 37029 ft 533 kts 56°
2026-05-04 03:51 22.90981 119.11422 37031 ft 534 kts 56°
2026-05-04 03:51 22.94855 119.18297 37021 ft 534 kts 56°
2026-05-04 03:52 22.98710 119.25146 37029 ft 533 kts 56°
2026-05-04 03:52 23.02589 119.32048 37015 ft 535 kts 56°
2026-05-04 03:53 23.06445 119.38917 37015 ft 534 kts 57°
2026-05-04 03:53 23.10292 119.45780 37018 ft 535 kts 57°
2026-05-04 03:54 23.14164 119.52698 37008 ft 533 kts 57°
2026-05-04 03:54 23.17986 119.59534 37009 ft 534 kts 56°
2026-05-04 03:55 23.21855 119.66457 37003 ft 535 kts 57°
2026-05-04 03:55 23.25713 119.73370 36997 ft 536 kts 57°
2026-05-04 03:56 23.29553 119.80260 36992 ft 536 kts 57°
2026-05-04 03:56 23.33399 119.87171 36996 ft 536 kts 57°
2026-05-04 03:57 23.37726 119.93780 36983 ft 533 kts 43°
2026-05-04 03:57 23.43016 119.99356 36991 ft 532 kts 40°
2026-05-04 03:58 23.51052 120.07626 37006 ft 532 kts 40°
2026-05-04 03:58 23.56421 120.13161 37010 ft 532 kts 40°
2026-05-04 03:59 23.61803 120.18718 37009 ft 532 kts 40°
2026-05-04 03:59 23.67157 120.24252 37015 ft 534 kts 40°
2026-05-04 04:00 23.72570 120.29855 37016 ft 533 kts 40°
2026-05-04 04:00 23.77939 120.35420 37017 ft 534 kts 40°
2026-05-04 04:01 23.83315 120.40997 37019 ft 534 kts 40°
2026-05-04 04:01 23.88708 120.46600 37018 ft 535 kts 40°
2026-05-04 04:02 23.94429 120.51711 37020 ft 531 kts 32°
2026-05-04 04:02 24.00393 120.56509 37033 ft 529 kts 32°
2026-05-04 04:03 24.06348 120.61304 37041 ft 533 kts 32°
2026-05-04 04:03 24.12280 120.66093 37038 ft 532 kts 32°
2026-05-04 04:04 24.18244 120.70915 37047 ft 532 kts 32°
2026-05-04 04:04 24.24211 120.75747 37052 ft 532 kts 32°
2026-05-04 04:05 24.30153 120.80565 37079 ft 532 kts 32°
2026-05-04 04:05 24.36123 120.85410 37105 ft 534 kts 32°
2026-05-04 04:06 24.42090 120.90261 37125 ft 534 kts 32°
2026-05-04 04:06 24.48065 120.95124 37150 ft 535 kts 32°
2026-05-04 04:07 24.54039 120.99992 37168 ft 533 kts 32°
2026-05-04 04:07 24.60003 121.04856 37150 ft 537 kts 32°
2026-05-04 04:08 24.65988 121.09747 37132 ft 533 kts 32°
2026-05-04 04:08 24.71938 121.14612 37116 ft 534 kts 32°
2026-05-04 04:09 24.77896 121.19490 37114 ft 535 kts 32°
2026-05-04 04:09 24.83866 121.24384 37120 ft 535 kts 32°
2026-05-04 04:10 24.89863 121.29306 37124 ft 537 kts 32°
2026-05-04 04:10 24.95808 121.34193 37125 ft 536 kts 31°
2026-05-04 04:11 25.01796 121.39120 37115 ft 536 kts 31°
2026-05-04 04:11 25.07786 121.44054 37123 ft 536 kts 32°
2026-05-04 04:12 25.13766 121.48988 37120 ft 538 kts 31°
2026-05-04 04:12 25.19431 121.54457 37130 ft 544 kts 44°
2026-05-04 04:13 25.24438 121.60721 37126 ft 548 kts 45°
2026-05-04 04:13 25.29433 121.67034 37108 ft 546 kts 45°
2026-05-04 04:14 25.34422 121.73345 37105 ft 546 kts 45°
2026-05-04 04:14 25.39425 121.79680 37110 ft 549 kts 45°
2026-05-04 04:15 25.44447 121.86050 37110 ft 546 kts 45°
2026-05-04 04:15 25.49450 121.92400 37115 ft 548 kts 45°
2026-05-04 04:16 25.54451 121.98759 37119 ft 547 kts 45°
2026-05-04 04:16 25.59421 122.05083 37113 ft 546 kts 44°
2026-05-04 04:17 25.65108 122.10574 37122 ft 542 kts 30°
2026-05-04 04:17 25.71267 122.15372 37119 ft 537 kts 29°
2026-05-04 04:18 25.77393 122.20131 37121 ft 540 kts 29°
2026-05-04 04:18 25.83544 122.24921 37122 ft 539 kts 29°
2026-05-04 04:19 25.89660 122.29690 37123 ft 540 kts 29°
2026-05-04 04:19 25.95845 122.34522 37126 ft 539 kts 29°
2026-05-04 04:20 26.01948 122.39297 37125 ft 540 kts 29°
2026-05-04 04:20 26.08113 122.44126 37125 ft 539 kts 29°
2026-05-04 04:21 26.14244 122.48934 37124 ft 542 kts 29°
2026-05-04 04:21 26.20418 122.53789 37127 ft 542 kts 29°
2026-05-04 04:22 26.26563 122.58632 37128 ft 541 kts 29°
2026-05-04 04:22 26.32727 122.63496 37137 ft 545 kts 29°
2026-05-04 04:23 26.38912 122.68383 37116 ft 543 kts 29°
2026-05-04 04:23 26.45071 122.73255 37114 ft 546 kts 30°
2026-05-04 04:24 26.51282 122.78176 37119 ft 546 kts 30°
2026-05-04 04:24 26.57476 122.83086 37114 ft 547 kts 29°
2026-05-04 04:25 26.63685 122.88002 37119 ft 546 kts 29°
2026-05-04 04:25 26.69883 122.92915 37119 ft 547 kts 29°
2026-05-04 04:26 26.76078 122.97832 37118 ft 546 kts 29°
2026-05-04 04:26 26.82247 123.02744 37120 ft 545 kts 29°
2026-05-04 04:27 26.88464 123.07707 37121 ft 548 kts 29°
2026-05-04 04:27 26.94697 123.12691 37124 ft 550 kts 28°
2026-05-04 04:28 27.00907 123.17664 37122 ft 549 kts 29°
2026-05-04 04:28 27.07134 123.22655 37129 ft 553 kts 29°
2026-05-04 04:29 27.13353 123.27651 37124 ft 549 kts 29°
2026-05-04 04:29 27.19596 123.32669 37129 ft 554 kts 29°
2026-05-04 04:30 27.25847 123.37703 37139 ft 550 kts 29°
2026-05-04 04:30 27.32068 123.42719 37140 ft 553 kts 29°
2026-05-04 04:31 27.38318 123.47766 37137 ft 551 kts 29°
2026-05-04 04:31 27.44560 123.52812 37139 ft 553 kts 28°
2026-05-04 04:32 27.50805 123.57869 37142 ft 555 kts 28°
2026-05-04 04:32 27.57062 123.62943 37140 ft 555 kts 29°
2026-05-04 04:33 27.63309 123.68040 37117 ft 555 kts 31°
2026-05-04 04:33 27.69443 123.73474 37126 ft 560 kts 32°
2026-05-04 04:34 27.75532 123.78906 37117 ft 557 kts 32°
2026-05-04 04:34 27.81617 123.84324 37120 ft 559 kts 32°
2026-05-04 04:35 27.87740 123.89776 37121 ft 561 kts 32°
2026-05-04 04:35 27.93837 123.95210 37124 ft 559 kts 32°
2026-05-04 04:36 27.99964 124.00674 37119 ft 562 kts 32°
2026-05-04 04:36 28.06122 124.06177 37123 ft 561 kts 32°
2026-05-04 04:37 28.18395 124.17163 37120 ft 563 kts 32°
2026-05-04 04:38 28.24560 124.22694 37122 ft 565 kts 32°
2026-05-04 04:38 28.30683 124.28195 37125 ft 566 kts 32°
2026-05-04 04:39 28.36853 124.33747 37125 ft 565 kts 32°
2026-05-04 04:39 28.43030 124.39314 37130 ft 566 kts 32°
2026-05-04 04:40 28.49161 124.44848 37136 ft 566 kts 32°
2026-05-04 04:40 28.55393 124.50480 37136 ft 569 kts 32°
2026-05-04 04:41 28.61552 124.56058 37128 ft 565 kts 32°
2026-05-04 04:41 28.67701 124.61632 37134 ft 569 kts 31°
2026-05-04 04:42 28.73909 124.67253 37103 ft 568 kts 30°
2026-05-04 04:42 28.80654 124.71613 37116 ft 551 kts 12°
2026-05-04 04:43 28.87790 124.74532 37114 ft 543 kts 10°
2026-05-04 04:43 28.94910 124.77360 37112 ft 540 kts
2026-05-04 04:44 29.02095 124.80215 37116 ft 546 kts
2026-05-04 04:44 29.09209 124.83055 37122 ft 543 kts
2026-05-04 04:45 29.16382 124.85922 37109 ft 543 kts 10°
2026-05-04 04:47 29.41486 124.95991 37117 ft 545 kts 10°
2026-05-04 04:47 29.48697 124.98892 37118 ft 549 kts
2026-05-04 04:48 29.55873 125.01787 37117 ft 548 kts
2026-05-04 04:49 29.73877 125.09066 37123 ft 549 kts
2026-05-04 04:49 29.81154 125.12013 37122 ft 552 kts
2026-05-04 04:50 29.88347 125.14936 37122 ft 549 kts 10°
2026-05-04 04:50 29.95547 125.17863 37127 ft 549 kts
2026-05-04 04:51 30.02800 125.20816 37127 ft 550 kts 10°
2026-05-04 04:51 30.09997 125.23759 37127 ft 552 kts
2026-05-04 04:52 30.17216 125.26719 37122 ft 548 kts
2026-05-04 04:52 30.24400 125.29665 37120 ft 551 kts
2026-05-04 04:53 30.31581 125.32616 37123 ft 549 kts
2026-05-04 04:53 30.38805 125.35588 37122 ft 550 kts
2026-05-04 04:54 30.46005 125.38555 37131 ft 552 kts
2026-05-04 04:54 30.53233 125.41540 37123 ft 550 kts
2026-05-04 04:55 30.60441 125.44522 37127 ft 549 kts
2026-05-04 04:55 30.67677 125.47518 37130 ft 548 kts
2026-05-04 04:56 30.74863 125.50498 37131 ft 549 kts
2026-05-04 04:56 30.82031 125.53475 37136 ft 550 kts
2026-05-04 04:57 30.89263 125.56482 37137 ft 555 kts
2026-05-04 04:57 30.96525 125.59512 37138 ft 549 kts
2026-05-04 04:58 31.03694 125.62505 37137 ft 549 kts
2026-05-04 04:58 31.10886 125.65511 37122 ft 549 kts
2026-05-04 04:59 31.18079 125.68521 37118 ft 555 kts 10°
2026-05-04 04:59 31.25306 125.71555 37103 ft 552 kts 10°
2026-05-04 05:00 31.32560 125.74602 37107 ft 553 kts 10°
2026-05-04 05:01 31.43441 125.79182 37107 ft 556 kts 10°
2026-05-04 05:01 31.50693 125.82244 37099 ft 551 kts 10°
2026-05-04 05:02 31.57879 125.85281 37110 ft 553 kts 10°
2026-05-04 05:02 31.65172 125.88351 37106 ft 552 kts 10°
2026-05-04 05:03 31.72368 125.91379 37100 ft 549 kts 10°
2026-05-04 05:04 31.86793 125.97462 37112 ft 549 kts
2026-05-04 05:04 31.94002 126.00508 37097 ft 553 kts 10°
2026-05-04 05:06 32.22883 126.12749 37094 ft 552 kts
2026-05-04 05:07 32.30092 126.15813 37096 ft 551 kts 10°
2026-05-04 05:07 32.37312 126.18887 37100 ft 551 kts 10°
2026-05-04 05:09 32.69758 126.32776 37104 ft 551 kts
2026-05-04 05:10 32.76943 126.35866 37105 ft 553 kts 10°
2026-05-04 05:10 32.84199 126.38996 37102 ft 551 kts 10°
2026-05-04 05:11 32.91385 126.42101 37105 ft 549 kts
2026-05-04 05:11 32.94963 126.43649 36936 ft 547 kts
2026-05-04 05:11 32.98501 126.45182 37122 ft 546 kts
2026-05-04 05:12 33.05730 126.48292 37107 ft 554 kts
2026-05-04 05:12 33.12995 126.51419 37094 ft 548 kts
2026-05-04 05:13 33.20235 126.54536 37095 ft 549 kts
2026-05-04 05:13 33.27415 126.57633 37101 ft 551 kts
2026-05-04 05:14 33.34638 126.60757 37109 ft 549 kts
2026-05-04 05:14 33.41720 126.63832 37109 ft 543 kts
2026-05-04 05:15 33.48894 126.66955 37076 ft 548 kts 10°
2026-05-04 05:15 33.56133 126.69675 37089 ft 534 kts 359°
2026-05-04 05:16 33.63433 126.70660 37077 ft 524 kts 353°
2026-05-04 05:16 33.70603 126.71417 37076 ft 515 kts 353°
2026-05-04 05:17 33.77840 126.72170 37073 ft 521 kts 353°
2026-05-04 05:17 33.84964 126.72925 37074 ft 519 kts 353°
2026-05-04 05:18 33.92174 126.73681 37078 ft 518 kts 353°
2026-05-04 05:18 33.99324 126.74427 37071 ft 516 kts 353°
2026-05-04 05:19 34.06515 126.75178 37077 ft 518 kts 353°
2026-05-04 05:19 34.13058 126.75863 37056 ft 517 kts 353°
2026-05-04 05:20 34.13118 126.75870 37056 ft 517 kts 353°
2026-05-04 05:20 34.24813 126.77097 37052 ft 518 kts 353°
2026-05-04 05:21 34.35990 126.78281 37054 ft 520 kts 353°
2026-05-04 05:21 34.41678 126.78892 37048 ft 512 kts 353°
2026-05-04 05:22 34.48875 126.79655 37042 ft 517 kts 353°
2026-05-04 05:22 34.55987 126.80419 37039 ft 512 kts 353°
2026-05-04 05:23 34.63132 126.81178 37040 ft 514 kts 353°
2026-05-04 05:23 34.70177 126.81937 37037 ft 509 kts 353°
2026-05-04 05:24 34.77326 126.82697 37040 ft 518 kts 353°
2026-05-04 05:24 34.84488 126.83471 37036 ft 514 kts 353°
2026-05-04 05:25 34.91582 126.84235 37036 ft 514 kts 353°
2026-05-04 05:25 34.98696 126.85003 37025 ft 512 kts 353°
2026-05-04 05:26 35.05868 126.85777 37025 ft 513 kts 353°
2026-05-04 05:26 35.12946 126.86544 37023 ft 512 kts 353°
2026-05-04 05:28 35.41113 126.89608 37007 ft 505 kts 353°
2026-05-04 05:29 35.48140 126.90375 36995 ft 504 kts 354°
2026-05-04 05:29 35.51624 126.90758 36864 ft 501 kts 354°
2026-05-04 05:29 35.55093 126.91136 36579 ft 502 kts 353°
2026-05-04 05:31 35.79605 126.93819 34809 ft 507 kts 354°
2026-05-04 05:31 35.83081 126.94204 34202 ft 507 kts 354°
2026-05-04 05:32 35.86635 126.94592 33320 ft 513 kts 355°
2026-05-04 05:32 35.90191 126.94981 32389 ft 518 kts 355°
2026-05-04 05:32 35.93766 126.95375 31447 ft 520 kts 356°
2026-05-04 05:33 36.00897 126.96169 29911 ft 508 kts 357°
2026-05-04 05:33 36.04393 126.96563 29405 ft 496 kts 357°
2026-05-04 05:33 36.07798 126.96945 28891 ft 486 kts 357°
2026-05-04 05:33 36.11122 126.97317 28333 ft 477 kts 357°
2026-05-04 05:34 36.14382 126.97680 27767 ft 468 kts 357°
2026-05-04 05:34 36.17606 126.98039 27186 ft 460 kts 357°
2026-05-04 05:34 36.20756 126.98389 26640 ft 451 kts 357°
2026-05-04 05:34 36.23833 126.98732 26102 ft 443 kts 357°
2026-05-04 05:35 36.26887 126.99072 25539 ft 435 kts 358°
2026-05-04 05:35 36.29857 126.99403 24999 ft 427 kts 358°
2026-05-04 05:35 36.32785 126.99729 24448 ft 420 kts 358°
2026-05-04 05:35 36.35669 127.00050 23906 ft 413 kts 358°
2026-05-04 05:36 36.38509 127.00333 23378 ft 403 kts 354°
2026-05-04 05:36 36.41291 127.00294 22875 ft 394 kts 351°
2026-05-04 05:36 36.44055 127.00185 22329 ft 405 kts 352°
2026-05-04 05:36 36.46872 127.00077 21780 ft 405 kts 352°
2026-05-04 05:37 36.49675 126.99972 21241 ft 401 kts 352°
2026-05-04 05:37 36.52451 126.99869 20686 ft 396 kts 352°
2026-05-04 05:37 36.55172 126.99770 20154 ft 391 kts 353°
2026-05-04 05:38 36.60531 126.99574 19094 ft 382 kts 353°
2026-05-04 05:38 36.63175 126.99480 18553 ft 378 kts 353°
2026-05-04 05:38 36.65791 126.99387 18013 ft 374 kts 354°
2026-05-04 05:38 36.68355 126.99295 17491 ft 369 kts 354°
2026-05-04 05:39 36.70908 126.99203 16981 ft 365 kts 353°
2026-05-04 05:39 36.75756 126.97998 15920 ft 349 kts 336°
2026-05-04 05:39 36.77927 126.96693 15291 ft 346 kts 331°
2026-05-04 05:40 36.82021 126.93952 14530 ft 322 kts 331°
2026-05-04 05:40 36.83969 126.92643 14272 ft 307 kts 331°
2026-05-04 05:40 36.85786 126.91421 14053 ft 293 kts 331°
2026-05-04 05:41 36.87547 126.90237 13902 ft 277 kts 331°
2026-05-04 05:41 36.89194 126.89127 13780 ft 262 kts 331°
2026-05-04 05:41 36.90777 126.88061 13506 ft 254 kts 331°
2026-05-04 05:41 36.92302 126.87033 13086 ft 252 kts 332°
2026-05-04 05:42 36.93850 126.85989 12597 ft 252 kts 332°
2026-05-04 05:42 36.95382 126.84955 12149 ft 251 kts 332°
2026-05-04 05:42 36.96904 126.83927 11722 ft 249 kts 332°
2026-05-04 05:42 36.98426 126.82899 11281 ft 248 kts 332°
2026-05-04 05:43 36.99947 126.81872 10811 ft 248 kts 332°
2026-05-04 05:43 37.01472 126.80840 10362 ft 248 kts 332°
2026-05-04 05:43 37.02981 126.79820 9949 ft 246 kts 332°
2026-05-04 05:45 37.13389 126.72768 6382 ft 240 kts 331°
2026-05-04 05:45 37.14863 126.71768 6115 ft 238 kts 331°
2026-05-04 05:47 37.24803 126.64923 4418 ft 216 kts 325°
2026-05-04 05:47 37.25993 126.63881 4402 ft 203 kts 324°
2026-05-04 05:47 37.27100 126.62898 4399 ft 189 kts 324°
2026-05-04 05:48 37.28169 126.61921 4180 ft 187 kts 323°
2026-05-04 05:48 37.29221 126.60963 3933 ft 186 kts 324°
2026-05-04 05:48 37.30271 126.60027 3680 ft 185 kts 324°
2026-05-04 05:48 37.31321 126.59099 3441 ft 184 kts 324°
2026-05-04 05:49 37.32354 126.58188 3206 ft 183 kts 324°
2026-05-04 05:49 37.33389 126.57277 2975 ft 182 kts 324°
2026-05-04 05:49 37.34435 126.56354 2728 ft 181 kts 323°
2026-05-04 05:49 37.35464 126.55446 2486 ft 181 kts 323°
2026-05-04 05:51 37.41694 126.49943 1011 ft 131 kts 322°
2026-05-04 05:51 37.42442 126.49285 825 ft 131 kts 322°
2026-05-04 05:52 37.43192 126.48637 646 ft 132 kts 321°
2026-05-04 05:52 37.43945 126.47961 472 ft 134 kts 320°
2026-05-04 05:52 37.44714 126.47285 292 ft 136 kts 321°
2026-05-04 05:52 37.45490 126.46602 102 ft 136 kts 320°
2026-05-04 05:53 37.46227 126.45948 36 ft 117 kts 324°
2026-05-04 05:54 37.47889 126.44765 35 ft 9 kts 132°
2026-05-04 05:55 37.47831 126.44823 36 ft 12 kts 145°
2026-05-04 05:55 37.47740 126.44904 36 ft 18 kts 144°
2026-05-04 05:55 37.47626 126.45005 36 ft 19 kts 145°
2026-05-04 05:55 37.47517 126.45101 36 ft 18 kts 144°
2026-05-04 05:56 37.47417 126.45190 36 ft 17 kts 145°
2026-05-04 05:56 37.47323 126.45275 36 ft 16 kts 144°
2026-05-04 05:56 37.47233 126.45356 36 ft 15 kts 145°
2026-05-04 05:56 37.47149 126.45431 36 ft 13 kts 145°
2026-05-04 05:57 37.47104 126.45494 36 ft 9 kts 99°
2026-05-04 05:57 37.47130 126.45576 36 ft 10 kts 54°
2026-05-04 05:57 37.47173 126.45651 35 ft 7 kts 54°
2026-05-04 05:57 37.47196 126.45709 36 ft 7 kts 92°
2026-05-04 05:58 37.47160 126.45761 36 ft 7 kts 144°
2026-05-04 05:58 37.47132 126.45785 36 ft 3 kts 146°
2026-05-04 05:58 37.47131 126.45785 36 ft 0 kts 146°